PIMOHWEATHER Station Historical Data
Daily Summary for May 10, 2020 Units:  Metric    English   Both
Daily Weekly Monthly Yearly
  High: Low: Average:
Temperature: 37.0 °C 26.0 °C 31.2 °C
Dew Point: 28.0 °C 24.0 °C 26.2 °C
Humidity: 98% 57% 77%
Wind Speed: 35km/h 0km/h 7.6km/h
Wind Gust: 40km/h - -
Wind- - South
Pressure: 1009.8 hPa 1004.7 hPa -
Precipitation: 6.10 mm    
 
 
Tabular Data for May 10, 2020
Time Temperature Dew Point Pressure Wind Wind Speed Wind Gust Humidity Rainfall Rate (Hourly) solar
00:04 28.0 °C 25.0 °C 1008.8 hPa NW 6 km/h 8 km/h 84% 0.00 mm 0.00 W/m2
00:09 28.0 °C 25.0 °C 1008.8 hPa NNW 5 km/h 8 km/h 84% 0.00 mm 0.00 W/m2
00:14 28.0 °C 25.0 °C 1008.8 hPa NW 8 km/h 8 km/h 84% 0.00 mm 0.00 W/m2
00:19 28.0 °C 25.0 °C 1008.8 hPa North 6 km/h 8 km/h 84% 0.00 mm 0.00 W/m2
00:24 28.0 °C 25.0 °C 1008.8 hPa North 6 km/h 8 km/h 83% 0.00 mm 0.00 W/m2
00:29 28.0 °C 25.0 °C 1008.5 hPa NNW 5 km/h 8 km/h 83% 0.00 mm 0.00 W/m2
00:34 28.0 °C 25.0 °C 1008.5 hPa NNE 7 km/h 8 km/h 84% 0.00 mm 0.00 W/m2
00:39 28.0 °C 25.0 °C 1008.5 hPa NNE 6 km/h 8 km/h 83% 0.00 mm 0.00 W/m2
00:44 28.0 °C 24.0 °C 1008.5 hPa NNE 8 km/h 8 km/h 82% 0.00 mm 0.00 W/m2
00:49 28.0 °C 25.0 °C 1008.5 hPa NNE 5 km/h 8 km/h 82% 0.00 mm 0.00 W/m2
00:54 28.0 °C 24.0 °C 1008.5 hPa North 5 km/h 8 km/h 82% 0.00 mm 0.00 W/m2
00:59 28.0 °C 25.0 °C 1008.5 hPa North 3 km/h 4 km/h 83% 0.00 mm 0.00 W/m2
01:04 28.0 °C 25.0 °C 1008.5 hPa North 5 km/h 8 km/h 83% 0.00 mm 0.00 W/m2
01:09 28.0 °C 25.0 °C 1008.1 hPa Calm     84% 0.00 mm 0.00 W/m2
01:14 28.0 °C 25.0 °C 1008.1 hPa Calm     84% 0.00 mm 0.00 W/m2
01:19 28.0 °C 25.0 °C 1008.1 hPa Calm     84% 0.00 mm 0.00 W/m2
01:24 28.0 °C 25.0 °C 1007.8 hPa NNW 6 km/h 8 km/h 84% 0.00 mm 0.00 W/m2
01:29 28.0 °C 25.0 °C 1008.1 hPa NNW 5 km/h 8 km/h 84% 0.00 mm 0.00 W/m2
01:34 28.0 °C 25.0 °C 1008.1 hPa NNW 3 km/h 4 km/h 85% 0.00 mm 0.00 W/m2
01:39 28.0 °C 25.0 °C 1008.1 hPa North 4 km/h 4 km/h 85% 0.00 mm 0.00 W/m2
01:44 28.0 °C 25.0 °C 1007.8 hPa North 5 km/h 12 km/h 86% 0.00 mm 0.00 W/m2
01:49 28.0 °C 25.0 °C 1007.8 hPa North 4 km/h 4 km/h 86% 0.00 mm 0.00 W/m2
01:54 28.0 °C 25.0 °C 1007.5 hPa North 4 km/h 4 km/h 87% 0.00 mm 0.00 W/m2
01:59 28.0 °C 25.0 °C 1007.8 hPa Calm     87% 0.00 mm 0.00 W/m2
02:04 28.0 °C 25.0 °C 1007.8 hPa North 4 km/h 4 km/h 86% 0.00 mm 0.00 W/m2
02:09 28.0 °C 25.0 °C 1007.8 hPa North 5 km/h 8 km/h 86% 0.00 mm 0.00 W/m2
02:14 28.0 °C 25.0 °C 1007.8 hPa North 3 km/h 4 km/h 86% 0.00 mm 0.00 W/m2
02:19 28.0 °C 25.0 °C 1007.8 hPa NNW 4 km/h 4 km/h 86% 0.00 mm 0.00 W/m2
02:24 28.0 °C 25.0 °C 1007.5 hPa Calm     86% 0.00 mm 0.00 W/m2
02:29 28.0 °C 25.0 °C 1007.5 hPa Calm     87% 0.00 mm 0.00 W/m2
02:34 28.0 °C 25.0 °C 1007.5 hPa Calm     86% 0.00 mm 0.00 W/m2
02:39 28.0 °C 25.0 °C 1007.5 hPa Calm     86% 0.00 mm 0.00 W/m2
02:44 28.0 °C 25.0 °C 1007.5 hPa Calm     87% 0.00 mm 0.00 W/m2
02:49 28.0 °C 25.0 °C 1007.5 hPa Calm     86% 0.00 mm 0.00 W/m2
02:54 28.0 °C 25.0 °C 1007.5 hPa Calm     86% 0.00 mm 0.00 W/m2
02:59 28.0 °C 25.0 °C 1007.5 hPa Calm     86% 0.00 mm 0.00 W/m2
03:04 28.0 °C 25.0 °C 1007.5 hPa Calm     87% 0.00 mm 0.00 W/m2
03:09 28.0 °C 25.0 °C 1007.5 hPa NNE 4 km/h 4 km/h 86% 0.00 mm 0.00 W/m2
03:14 28.0 °C 26.0 °C 1007.5 hPa Calm     86% 0.00 mm 0.00 W/m2
03:19 28.0 °C 25.0 °C 1007.5 hPa Calm   4 km/h 85% 0.00 mm 0.00 W/m2
03:24 28.0 °C 25.0 °C 1007.5 hPa NNE 3 km/h 4 km/h 85% 0.00 mm 0.00 W/m2
03:29 28.0 °C 25.0 °C 1007.5 hPa ESE 1 km/h 4 km/h 85% 0.00 mm 0.00 W/m2
03:34 28.0 °C 25.0 °C 1007.1 hPa Calm     85% 0.00 mm 0.00 W/m2
03:39 28.0 °C 25.0 °C 1007.5 hPa Calm     85% 0.00 mm 0.00 W/m2
03:44 28.0 °C 25.0 °C 1007.1 hPa Calm     85% 0.00 mm 0.00 W/m2
03:49 28.0 °C 25.0 °C 1007.1 hPa Calm     85% 0.00 mm 0.00 W/m2
03:54 28.0 °C 25.0 °C 1007.1 hPa Calm     85% 0.00 mm 0.00 W/m2
03:59 28.0 °C 25.0 °C 1007.1 hPa NW 4 km/h 4 km/h 86% 0.00 mm 0.00 W/m2
04:04 28.0 °C 25.0 °C 1007.1 hPa North 4 km/h 4 km/h 86% 0.00 mm 0.00 W/m2
04:09 28.0 °C 25.0 °C 1007.1 hPa North 5 km/h 8 km/h 86% 0.00 mm 0.00 W/m2
04:14 28.0 °C 25.0 °C 1006.8 hPa NNW 4 km/h 8 km/h 86% 0.00 mm 0.00 W/m2
04:19 28.0 °C 25.0 °C 1007.1 hPa WNW 6 km/h 8 km/h 86% 0.00 mm 0.00 W/m2
04:24 28.0 °C 25.0 °C 1007.1 hPa NW 5 km/h 8 km/h 86% 0.00 mm 0.00 W/m2
04:29 28.0 °C 25.0 °C 1007.1 hPa North 6 km/h 8 km/h 86% 0.00 mm 0.00 W/m2
04:34 28.0 °C 25.0 °C 1007.5 hPa North 6 km/h 8 km/h 86% 0.00 mm 0.00 W/m2
04:39 28.0 °C 25.0 °C 1007.1 hPa North 2 km/h 4 km/h 86% 0.00 mm 0.00 W/m2
04:44 28.0 °C 25.0 °C 1007.1 hPa NNW 4 km/h 4 km/h 86% 0.00 mm 0.00 W/m2
04:49 28.0 °C 25.0 °C 1007.5 hPa North 4 km/h 4 km/h 86% 0.00 mm 0.00 W/m2
04:54 28.0 °C 25.0 °C 1007.1 hPa NNW 4 km/h 4 km/h 86% 0.00 mm 0.00 W/m2
04:59 28.0 °C 25.0 °C 1007.1 hPa NW 4 km/h 4 km/h 86% 0.00 mm 0.00 W/m2
05:04 28.0 °C 25.0 °C 1007.1 hPa NW 5 km/h 8 km/h 86% 0.00 mm 0.00 W/m2
05:09 28.0 °C 25.0 °C 1007.1 hPa North 3 km/h 4 km/h 86% 0.00 mm 0.00 W/m2
05:14 28.0 °C 25.0 °C 1007.5 hPa North 6 km/h 8 km/h 86% 0.00 mm 0.00 W/m2
05:19 28.0 °C 25.0 °C 1007.5 hPa North 6 km/h 8 km/h 86% 0.00 mm 0.00 W/m2
05:24 28.0 °C 25.0 °C 1007.8 hPa NW 6 km/h 8 km/h 86% 0.00 mm 0.00 W/m2
05:29 28.0 °C 25.0 °C 1007.8 hPa NW 6 km/h 8 km/h 86% 0.00 mm 0.51 W/m2
05:34 28.0 °C 25.0 °C 1007.8 hPa NNW 6 km/h 8 km/h 86% 0.00 mm 2.99 W/m2
05:39 28.0 °C 25.0 °C 1007.8 hPa North 9 km/h 12 km/h 86% 0.00 mm 6.11 W/m2
05:44 28.0 °C 25.0 °C 1008.1 hPa NNW 6 km/h 8 km/h 87% 0.00 mm 10.84 W/m2
05:49 28.0 °C 25.0 °C 1008.1 hPa NNW 7 km/h 8 km/h 88% 0.00 mm 17.60 W/m2
05:54 28.0 °C 25.0 °C 1008.1 hPa NNE 7 km/h 8 km/h 88% 0.00 mm 22.36 W/m2
05:59 28.0 °C 25.0 °C 1008.1 hPa North 6 km/h 8 km/h 88% 0.00 mm 28.23 W/m2
06:04 28.0 °C 25.0 °C 1008.5 hPa North 9 km/h 12 km/h 88% 0.00 mm 34.33 W/m2
06:09 27.0 °C 25.0 °C 1008.1 hPa North 9 km/h 12 km/h 89% 0.00 mm 40.87 W/m2
06:14 27.0 °C 25.0 °C 1008.5 hPa North 6 km/h 8 km/h 89% 0.00 mm 45.57 W/m2
06:19 27.0 °C 25.0 °C 1008.5 hPa North 9 km/h 12 km/h 89% 0.00 mm 59.65 W/m2
06:24 28.0 °C 26.0 °C 1008.5 hPa North 9 km/h 12 km/h 89% 0.00 mm 89.33 W/m2
06:29 28.0 °C 26.0 °C 1008.5 hPa North 10 km/h 12 km/h 89% 0.00 mm 111.20 W/m2
06:34 28.0 °C 26.0 °C 1008.5 hPa North 8 km/h 12 km/h 88% 0.00 mm 123.53 W/m2
06:39 28.0 °C 26.0 °C 1008.5 hPa NNE 8 km/h 8 km/h 87% 0.00 mm 130.77 W/m2
06:44 29.0 °C 26.0 °C 1008.5 hPa North 6 km/h 8 km/h 85% 0.00 mm 142.52 W/m2
06:49 29.0 °C 25.0 °C 1008.5 hPa North 8 km/h 12 km/h 84% 0.00 mm 150.32 W/m2
06:54 29.0 °C 25.0 °C 1008.8 hPa North 10 km/h 12 km/h 83% 0.00 mm 151.47 W/m2
06:59 29.0 °C 26.0 °C 1008.8 hPa NNE 10 km/h 12 km/h 83% 0.00 mm 157.07 W/m2
07:04 29.0 °C 26.0 °C 1009.1 hPa North 13 km/h 16 km/h 83% 0.00 mm 194.97 W/m2
07:09 29.0 °C 26.0 °C 1008.8 hPa NNW 8 km/h 12 km/h 82% 0.00 mm 202.02 W/m2
07:14 29.0 °C 26.0 °C 1008.8 hPa NNW 8 km/h 8 km/h 81% 0.00 mm 229.89 W/m2
07:19 30.0 °C 26.0 °C 1008.8 hPa North 9 km/h 12 km/h 80% 0.00 mm 232.24 W/m2
07:24 30.0 °C 26.0 °C 1008.8 hPa NNE 10 km/h 12 km/h 80% 0.00 mm 231.26 W/m2
07:29 30.0 °C 26.0 °C 1008.8 hPa North 7 km/h 8 km/h 80% 0.00 mm 244.62 W/m2
07:34 30.0 °C 26.0 °C 1008.8 hPa NNE 6 km/h 8 km/h 78% 0.00 mm 257.83 W/m2
07:39 30.0 °C 26.0 °C 1009.1 hPa North 6 km/h 8 km/h 78% 0.00 mm 264.61 W/m2
07:44 31.0 °C 26.0 °C 1009.1 hPa NNE 7 km/h 8 km/h 78% 0.00 mm 289.86 W/m2
07:49 31.0 °C 26.0 °C 1009.1 hPa ESE 6 km/h 8 km/h 76% 0.00 mm 291.77 W/m2
07:54 32.0 °C 26.0 °C 1009.1 hPa South 5 km/h 8 km/h 76% 0.00 mm 302.21 W/m2
07:59 32.0 °C 27.0 °C 1009.1 hPa WNW 8 km/h 8 km/h 74% 0.00 mm 308.23 W/m2
08:04 32.0 °C 26.0 °C 1009.1 hPa NNE 8 km/h 12 km/h 74% 0.00 mm 324.50 W/m2
08:09 32.0 °C 27.0 °C 1009.1 hPa North 7 km/h 12 km/h 75% 0.00 mm 317.95 W/m2
08:14 32.0 °C 27.0 °C 1009.1 hPa NE 6 km/h 8 km/h 74% 0.00 mm 318.31 W/m2
08:19 32.0 °C 26.0 °C 1009.1 hPa North 4 km/h 8 km/h 74% 0.00 mm 320.52 W/m2
08:24 32.0 °C 26.0 °C 1009.1 hPa SE 9 km/h 12 km/h 73% 0.00 mm 336.20 W/m2
08:29 32.0 °C 26.0 °C 1009.1 hPa SSE 6 km/h 8 km/h 72% 0.00 mm 331.09 W/m2
08:34 33.0 °C 27.0 °C 1009.1 hPa NE 3 km/h 4 km/h 71% 0.00 mm 334.46 W/m2
08:39 33.0 °C 26.0 °C 1009.1 hPa NNE 8 km/h 8 km/h 70% 0.00 mm 339.18 W/m2
08:44 32.0 °C 26.0 °C 1009.1 hPa SSE 8 km/h 12 km/h 71% 0.00 mm 360.40 W/m2
08:49 33.0 °C 26.0 °C 1009.1 hPa SSE 9 km/h 12 km/h 71% 0.00 mm 366.69 W/m2
08:54 33.0 °C 27.0 °C 1009.1 hPa SE 7 km/h 8 km/h 70% 0.00 mm 376.72 W/m2
08:59 34.0 °C 27.0 °C 1009.1 hPa ESE 9 km/h 12 km/h 68% 0.00 mm 378.65 W/m2
09:04 33.0 °C 26.0 °C 1009.1 hPa NW 14 km/h 16 km/h 69% 0.00 mm 383.59 W/m2
09:09 33.0 °C 26.0 °C 1009.5 hPa North 9 km/h 12 km/h 70% 0.00 mm 398.44 W/m2
09:14 33.0 °C 26.0 °C 1009.1 hPa East 6 km/h 8 km/h 70% 0.00 mm 429.03 W/m2
09:19 33.0 °C 27.0 °C 1009.1 hPa SE 8 km/h 8 km/h 72% 0.00 mm 451.17 W/m2
09:24 34.0 °C 27.0 °C 1009.1 hPa WNW 7 km/h 12 km/h 70% 0.00 mm 466.85 W/m2
09:29 34.0 °C 28.0 °C 1009.1 hPa South 9 km/h 12 km/h 70% 0.00 mm 468.00 W/m2
09:34 34.0 °C 27.0 °C 1009.1 hPa West 12 km/h 16 km/h 70% 0.00 mm 465.36 W/m2
09:39 34.0 °C 27.0 °C 1009.1 hPa South 10 km/h 12 km/h 70% 0.00 mm 480.75 W/m2
09:44 34.0 °C 27.0 °C 1009.1 hPa South 8 km/h 12 km/h 69% 0.00 mm 457.21 W/m2
09:49 33.0 °C 27.0 °C 1009.1 hPa South 8 km/h 12 km/h 71% 0.00 mm 208.85 W/m2
09:54 33.0 °C 27.0 °C 1009.1 hPa South 10 km/h 12 km/h 72% 0.00 mm 413.93 W/m2
09:59 33.0 °C 27.0 °C 1009.1 hPa South 9 km/h 12 km/h 72% 0.00 mm 224.24 W/m2
10:04 33.0 °C 27.0 °C 1009.1 hPa South 6 km/h 8 km/h 72% 0.00 mm 192.16 W/m2
10:09 33.0 °C 27.0 °C 1009.1 hPa WSW 8 km/h 12 km/h 73% 0.00 mm 206.57 W/m2
10:14 32.0 °C 27.0 °C 1009.1 hPa SSW 10 km/h 12 km/h 74% 0.00 mm 188.93 W/m2
10:19 32.0 °C 27.0 °C 1009.1 hPa South 10 km/h 12 km/h 73% 0.00 mm 170.58 W/m2
10:24 32.0 °C 27.0 °C 1008.8 hPa South 10 km/h 12 km/h 73% 0.00 mm 231.02 W/m2
10:29 33.0 °C 27.0 °C 1008.8 hPa WSW 10 km/h 12 km/h 72% 0.00 mm 494.16 W/m2
10:34 34.0 °C 27.0 °C 1008.8 hPa SSW 12 km/h 12 km/h 70% 0.00 mm 481.12 W/m2
10:39 34.0 °C 27.0 °C 1008.8 hPa SW 7 km/h 8 km/h 69% 0.00 mm 497.32 W/m2
10:44 34.0 °C 27.0 °C 1008.8 hPa SSW 10 km/h 16 km/h 68% 0.00 mm 477.94 W/m2
10:49 34.0 °C 27.0 °C 1008.8 hPa South 11 km/h 12 km/h 70% 0.00 mm 274.84 W/m2
10:54 34.0 °C 27.0 °C 1008.8 hPa SSW 12 km/h 16 km/h 69% 0.00 mm 484.96 W/m2
10:59 34.0 °C 27.0 °C 1008.8 hPa SSE 11 km/h 16 km/h 69% 0.00 mm 449.73 W/m2
11:04 33.0 °C 27.0 °C 1008.8 hPa SSW 9 km/h 12 km/h 70% 0.00 mm 341.61 W/m2
11:09 33.0 °C 27.0 °C 1008.8 hPa SSW 9 km/h 12 km/h 70% 0.00 mm 352.52 W/m2
11:14 33.0 °C 27.0 °C 1008.8 hPa SSE 8 km/h 12 km/h 69% 0.00 mm 449.48 W/m2
11:19 33.0 °C 27.0 °C 1008.8 hPa South 8 km/h 12 km/h 69% 0.00 mm 280.88 W/m2
11:24 33.0 °C 26.0 °C 1008.8 hPa West 9 km/h 12 km/h 68% 0.00 mm 454.43 W/m2
11:29 33.0 °C 27.0 °C 1008.8 hPa SW 8 km/h 12 km/h 69% 0.00 mm 223.48 W/m2
11:34 33.0 °C 27.0 °C 1008.8 hPa South 7 km/h 12 km/h 70% 0.00 mm 444.74 W/m2
11:39 34.0 °C 27.0 °C 1008.8 hPa WSW 8 km/h 12 km/h 70% 0.00 mm 534.75 W/m2
11:44 34.0 °C 27.0 °C 1008.5 hPa South 10 km/h 12 km/h 68% 0.00 mm 548.50 W/m2
11:49 35.0 °C 28.0 °C 1008.5 hPa SSW 8 km/h 12 km/h 67% 0.00 mm 541.77 W/m2
11:54 35.0 °C 28.0 °C 1008.5 hPa SSW 9 km/h 12 km/h 67% 0.00 mm 527.56 W/m2
11:59 35.0 °C 28.0 °C 1008.1 hPa SSW 9 km/h 12 km/h 67% 0.00 mm 539.99 W/m2
12:04 35.0 °C 27.0 °C 1008.1 hPa WSW 9 km/h 12 km/h 64% 0.00 mm 528.61 W/m2
12:09 34.0 °C 27.0 °C 1007.8 hPa WNW 19 km/h 24 km/h 67% 0.00 mm 504.71 W/m2
12:14 34.0 °C 27.0 °C 1007.8 hPa SSW 8 km/h 16 km/h 67% 0.00 mm 510.11 W/m2
12:19 35.0 °C 27.0 °C 1007.8 hPa WNW 9 km/h 12 km/h 65% 0.00 mm 518.90 W/m2
12:24 35.0 °C 27.0 °C 1007.8 hPa SW 6 km/h 12 km/h 64% 0.00 mm 540.28 W/m2
12:29 36.0 °C 27.0 °C 1007.8 hPa South 14 km/h 16 km/h 64% 0.00 mm 545.05 W/m2
12:34 35.0 °C 27.0 °C 1007.8 hPa South 15 km/h 20 km/h 65% 0.00 mm 547.72 W/m2
12:39 35.0 °C 27.0 °C 1007.5 hPa West 13 km/h 16 km/h 64% 0.00 mm 568.69 W/m2
12:44 35.0 °C 27.0 °C 1007.5 hPa WSW 14 km/h 16 km/h 64% 0.00 mm 564.48 W/m2
12:49 35.0 °C 27.0 °C 1007.5 hPa South 6 km/h 8 km/h 64% 0.00 mm 566.90 W/m2
12:54 36.0 °C 27.0 °C 1007.5 hPa WSW 10 km/h 12 km/h 63% 0.00 mm 539.13 W/m2
12:59 35.0 °C 28.0 °C 1007.1 hPa SSW 10 km/h 12 km/h 64% 0.00 mm 529.66 W/m2
13:04 35.0 °C 27.0 °C 1007.1 hPa SSW 12 km/h 12 km/h 64% 0.00 mm 528.83 W/m2
13:09 36.0 °C 28.0 °C 1007.1 hPa South 9 km/h 16 km/h 64% 0.00 mm 553.40 W/m2
13:14 36.0 °C 27.0 °C 1007.1 hPa SW 9 km/h 12 km/h 63% 0.00 mm 559.44 W/m2
13:19 36.0 °C 27.0 °C 1007.1 hPa West 10 km/h 12 km/h 63% 0.00 mm 561.47 W/m2
13:24 36.0 °C 27.0 °C 1007.1 hPa WSW 7 km/h 12 km/h 61% 0.00 mm 565.60 W/m2
13:29 36.0 °C 27.0 °C 1006.8 hPa SW 13 km/h 16 km/h 62% 0.00 mm 563.57 W/m2
13:34 36.0 °C 27.0 °C 1006.8 hPa SSW 8 km/h 12 km/h 61% 0.00 mm 559.02 W/m2
13:39 36.0 °C 27.0 °C 1006.8 hPa WNW 15 km/h 20 km/h 63% 0.00 mm 571.43 W/m2
13:44 36.0 °C 27.0 °C 1006.8 hPa NW 15 km/h 20 km/h 63% 0.00 mm 560.52 W/m2
13:49 36.0 °C 27.0 °C 1006.8 hPa West 12 km/h 16 km/h 63% 0.00 mm 505.88 W/m2
13:54 36.0 °C 27.0 °C 1006.4 hPa SSW 9 km/h 12 km/h 60% 0.00 mm 518.02 W/m2
13:59 36.0 °C 27.0 °C 1006.4 hPa SSE 12 km/h 16 km/h 60% 0.00 mm 529.12 W/m2
14:04 36.0 °C 27.0 °C 1006.4 hPa SSW 15 km/h 20 km/h 62% 0.00 mm 518.73 W/m2
14:09 36.0 °C 27.0 °C 1006.4 hPa South 10 km/h 16 km/h 62% 0.00 mm 500.50 W/m2
14:14 36.0 °C 27.0 °C 1006.1 hPa WSW 8 km/h 12 km/h 61% 0.00 mm 503.46 W/m2
14:19 37.0 °C 27.0 °C 1006.1 hPa NW 15 km/h 20 km/h 61% 0.00 mm 487.28 W/m2
14:24 36.0 °C 27.0 °C 1006.1 hPa WSW 12 km/h 16 km/h 61% 0.00 mm 489.17 W/m2
14:29 36.0 °C 27.0 °C 1005.8 hPa South 12 km/h 16 km/h 61% 0.00 mm 486.55 W/m2
14:34 36.0 °C 27.0 °C 1005.8 hPa South 14 km/h 20 km/h 61% 0.00 mm 489.98 W/m2
14:39 36.0 °C 27.0 °C 1005.8 hPa South 14 km/h 16 km/h 61% 0.00 mm 463.53 W/m2
14:44 37.0 °C 28.0 °C 1005.8 hPa SSW 10 km/h 12 km/h 60% 0.00 mm 454.01 W/m2
14:49 37.0 °C 28.0 °C 1005.8 hPa WNW 10 km/h 12 km/h 60% 0.00 mm 459.51 W/m2
14:54 37.0 °C 27.0 °C 1005.8 hPa South 11 km/h 16 km/h 59% 0.00 mm 459.15 W/m2
14:59 37.0 °C 27.0 °C 1005.8 hPa South 10 km/h 16 km/h 60% 0.00 mm 451.71 W/m2
15:04 36.0 °C 27.0 °C 1005.4 hPa South 12 km/h 16 km/h 60% 0.00 mm 455.18 W/m2
15:09 37.0 °C 27.0 °C 1005.4 hPa SSW 7 km/h 12 km/h 59% 0.00 mm 447.97 W/m2
15:14 37.0 °C 27.0 °C 1005.4 hPa SSW 9 km/h 12 km/h 58% 0.00 mm 445.59 W/m2
15:19 37.0 °C 27.0 °C 1005.4 hPa SSW 10 km/h 16 km/h 59% 0.00 mm 455.16 W/m2
15:24 36.0 °C 27.0 °C 1005.1 hPa South 9 km/h 12 km/h 59% 0.00 mm 437.59 W/m2
15:29 37.0 °C 27.0 °C 1005.1 hPa SSE 7 km/h 8 km/h 59% 0.00 mm 420.07 W/m2
15:34 37.0 °C 27.0 °C 1005.1 hPa South 11 km/h 16 km/h 58% 0.00 mm 430.40 W/m2
15:39 37.0 °C 27.0 °C 1005.4 hPa South 12 km/h 12 km/h 58% 0.00 mm 437.22 W/m2
15:44 37.0 °C 27.0 °C 1005.4 hPa WSW 10 km/h 12 km/h 59% 0.00 mm 426.04 W/m2
15:49 36.0 °C 27.0 °C 1005.4 hPa SSW 9 km/h 12 km/h 58% 0.00 mm 398.15 W/m2
15:54 37.0 °C 27.0 °C 1005.4 hPa SSW 8 km/h 8 km/h 59% 0.00 mm 358.61 W/m2
15:59 37.0 °C 27.0 °C 1005.4 hPa South 9 km/h 12 km/h 59% 0.00 mm 381.37 W/m2
16:04 37.0 °C 27.0 °C 1005.1 hPa South 9 km/h 12 km/h 59% 0.00 mm 374.15 W/m2
16:09 37.0 °C 27.0 °C 1005.1 hPa SSW 11 km/h 12 km/h 59% 0.00 mm 373.88 W/m2
16:14 37.0 °C 27.0 °C 1005.1 hPa WSW 10 km/h 12 km/h 58% 0.00 mm 355.94 W/m2
16:19 37.0 °C 27.0 °C 1005.1 hPa SW 11 km/h 12 km/h 58% 0.00 mm 331.33 W/m2
16:24 36.0 °C 27.0 °C 1005.1 hPa South 10 km/h 12 km/h 59% 0.00 mm 353.47 W/m2
16:29 37.0 °C 27.0 °C 1005.1 hPa SSW 10 km/h 12 km/h 59% 0.00 mm 350.76 W/m2
16:34 37.0 °C 27.0 °C 1004.7 hPa South 5 km/h 8 km/h 58% 0.00 mm 335.12 W/m2
16:39 37.0 °C 27.0 °C 1005.1 hPa WSW 5 km/h 8 km/h 57% 0.00 mm 332.31 W/m2
16:44 37.0 °C 27.0 °C 1005.1 hPa WNW 8 km/h 12 km/h 58% 0.00 mm 313.76 W/m2
16:49 37.0 °C 27.0 °C 1004.7 hPa SSW 6 km/h 8 km/h 58% 0.00 mm 298.76 W/m2
16:54 37.0 °C 27.0 °C 1005.1 hPa West 5 km/h 8 km/h 57% 0.00 mm 262.36 W/m2
16:59 37.0 °C 27.0 °C 1005.1 hPa South 6 km/h 8 km/h 58% 0.00 mm 223.09 W/m2
17:04 37.0 °C 27.0 °C 1005.1 hPa SSE 12 km/h 16 km/h 60% 0.00 mm 213.37 W/m2
17:09 36.0 °C 27.0 °C 1004.7 hPa SE 9 km/h 12 km/h 61% 0.00 mm 195.37 W/m2
17:14 36.0 °C 27.0 °C 1005.1 hPa South 3 km/h 4 km/h 60% 0.00 mm 96.05 W/m2
17:19 36.0 °C 27.0 °C 1004.7 hPa SSE 7 km/h 8 km/h 61% 0.00 mm 77.32 W/m2
17:24 35.0 °C 27.0 °C 1005.1 hPa SE 7 km/h 8 km/h 62% 0.00 mm 50.68 W/m2
17:29 35.0 °C 27.0 °C 1005.1 hPa Calm   4 km/h 62% 0.00 mm 49.89 W/m2
17:34 35.0 °C 27.0 °C 1005.1 hPa East 9 km/h 12 km/h 63% 0.00 mm 46.42 W/m2
17:39 35.0 °C 27.0 °C 1005.1 hPa ESE 14 km/h 16 km/h 62% 0.00 mm 32.96 W/m2
17:44 35.0 °C 26.0 °C 1005.1 hPa SE 9 km/h 12 km/h 63% 0.00 mm 25.31 W/m2
17:49 35.0 °C 26.0 °C 1005.1 hPa SE 13 km/h 20 km/h 63% 0.00 mm 20.57 W/m2
17:54 34.0 °C 26.0 °C 1005.4 hPa ESE 14 km/h 20 km/h 64% 0.00 mm 18.59 W/m2
17:59 34.0 °C 26.0 °C 1005.4 hPa SE 22 km/h 28 km/h 64% 0.00 mm 14.09 W/m2
18:04 34.0 °C 27.0 °C 1005.8 hPa SE 18 km/h 24 km/h 67% 0.00 mm 8.74 W/m2
18:09 34.0 °C 28.0 °C 1005.8 hPa SSE 20 km/h 24 km/h 77% 0.00 mm 4.78 W/m2
18:14 33.0 °C 28.0 °C 1005.8 hPa SSE 14 km/h 20 km/h 77% 0.00 mm 1.86 W/m2
18:19 32.0 °C 28.0 °C 1006.1 hPa SSE 13 km/h 16 km/h 78% 0.00 mm 0.00 W/m2
18:24 32.0 °C 28.0 °C 1006.1 hPa South 11 km/h 12 km/h 77% 0.00 mm 0.00 W/m2
18:29 32.0 °C 28.0 °C 1006.4 hPa South 14 km/h 16 km/h 77% 0.00 mm 0.00 W/m2
18:34 32.0 °C 28.0 °C 1006.4 hPa South 10 km/h 12 km/h 77% 0.00 mm 0.00 W/m2
18:39 32.0 °C 28.0 °C 1006.4 hPa South 10 km/h 12 km/h 76% 0.00 mm 0.00 W/m2
18:44 32.0 °C 28.0 °C 1006.4 hPa SSE 11 km/h 16 km/h 77% 0.00 mm 0.00 W/m2
18:49 32.0 °C 28.0 °C 1006.8 hPa SSE 17 km/h 20 km/h 78% 0.00 mm 0.00 W/m2
18:54 32.0 °C 28.0 °C 1006.8 hPa SSE 11 km/h 16 km/h 79% 0.00 mm 0.00 W/m2
18:59 32.0 °C 28.0 °C 1006.8 hPa South 12 km/h 16 km/h 79% 0.00 mm 0.00 W/m2
19:04 32.0 °C 28.0 °C 1006.8 hPa South 12 km/h 16 km/h 79% 0.00 mm 0.00 W/m2
19:09 32.0 °C 28.0 °C 1007.1 hPa South 12 km/h 16 km/h 79% 0.00 mm 0.00 W/m2
19:14 32.0 °C 28.0 °C 1007.1 hPa SSE 18 km/h 24 km/h 79% 0.00 mm 0.00 W/m2
19:19 32.0 °C 28.0 °C 1006.8 hPa SSE 13 km/h 16 km/h 80% 0.00 mm 0.00 W/m2
19:24 32.0 °C 28.0 °C 1007.1 hPa SSE 14 km/h 16 km/h 79% 0.00 mm 0.00 W/m2
19:29 32.0 °C 28.0 °C 1007.1 hPa SSE 10 km/h 12 km/h 79% 0.00 mm 0.00 W/m2
19:34 32.0 °C 27.0 °C 1007.1 hPa SSW 21 km/h 28 km/h 78% 0.00 mm 0.00 W/m2
19:39 31.0 °C 26.0 °C 1007.5 hPa NW 18 km/h 20 km/h 73% 0.00 mm 0.00 W/m2
19:44 31.0 °C 25.0 °C 1008.1 hPa NW 35 km/h 40 km/h 82% 0.00 mm 0.00 W/m2
19:49 28.0 °C 25.0 °C 1008.1 hPa NW 28 km/h 40 km/h 87% 0.00 mm 0.00 W/m2
19:54 27.0 °C 25.0 °C 1008.1 hPa NW 26 km/h 32 km/h 93% 16.26 mm 0.00 W/m2
19:59 26.0 °C 25.0 °C 1008.1 hPa NNW 16 km/h 20 km/h 95% 25.15 mm 0.00 W/m2
20:04 26.0 °C 26.0 °C 1008.1 hPa NW 10 km/h 12 km/h 96% 26.92 mm 0.00 W/m2
20:09 26.0 °C 26.0 °C 1008.1 hPa NNE 9 km/h 12 km/h 96% 14.48 mm 0.00 W/m2
20:14 27.0 °C 26.0 °C 1008.5 hPa ESE 12 km/h 16 km/h 97% 7.11 mm 0.00 W/m2
20:19 27.0 °C 26.0 °C 1008.1 hPa ESE 10 km/h 12 km/h 97% 5.33 mm 0.00 W/m2
20:24 26.0 °C 26.0 °C 1008.5 hPa East 4 km/h 8 km/h 97% 3.56 mm 0.00 W/m2
20:29 27.0 °C 26.0 °C 1008.5 hPa ESE 8 km/h 8 km/h 97% 1.78 mm 0.00 W/m2
20:34 27.0 °C 26.0 °C 1008.8 hPa ESE 5 km/h 8 km/h 97% 0.00 mm 0.00 W/m2
20:39 26.0 °C 26.0 °C 1008.8 hPa Calm     97% 0.00 mm 0.00 W/m2
20:44 27.0 °C 26.0 °C 1008.8 hPa Calm     97% 0.00 mm 0.00 W/m2
20:49 27.0 °C 26.0 °C 1008.8 hPa South 6 km/h 8 km/h 97% 0.00 mm 0.00 W/m2
20:54 27.0 °C 26.0 °C 1008.5 hPa South 4 km/h 4 km/h 98% 0.00 mm 0.00 W/m2
20:59 27.0 °C 26.0 °C 1008.5 hPa SSE 4 km/h 4 km/h 98% 0.00 mm 0.00 W/m2
21:04 27.0 °C 26.0 °C 1008.8 hPa South 3 km/h 4 km/h 97% 0.00 mm 0.00 W/m2
21:09 27.0 °C 26.0 °C 1008.8 hPa SSE 15 km/h 20 km/h 97% 0.00 mm 0.00 W/m2
21:14 27.0 °C 26.0 °C 1008.8 hPa South 3 km/h 4 km/h 97% 0.00 mm 0.00 W/m2
21:19 27.0 °C 26.0 °C 1008.8 hPa SSE 4 km/h 4 km/h 97% 0.00 mm 0.00 W/m2
21:24 27.0 °C 26.0 °C 1008.8 hPa South 8 km/h 12 km/h 97% 0.00 mm 0.00 W/m2
21:29 26.0 °C 25.0 °C 1008.8 hPa SSE 10 km/h 12 km/h 95% 0.00 mm 0.00 W/m2
21:34 27.0 °C 26.0 °C 1009.1 hPa SE 5 km/h 8 km/h 94% 0.00 mm 0.00 W/m2
21:39 27.0 °C 26.0 °C 1009.1 hPa South 3 km/h 4 km/h 94% 0.00 mm 0.00 W/m2
21:44 27.0 °C 26.0 °C 1009.1 hPa SSW 3 km/h 4 km/h 94% 0.00 mm 0.00 W/m2
21:49 27.0 °C 26.0 °C 1009.1 hPa NW 5 km/h 8 km/h 93% 0.00 mm 0.00 W/m2
21:54 27.0 °C 26.0 °C 1009.1 hPa NW 5 km/h 8 km/h 92% 0.00 mm 0.00 W/m2
21:59 27.0 °C 25.0 °C 1009.1 hPa West 1 km/h 4 km/h 90% 0.00 mm 0.00 W/m2
22:04 28.0 °C 26.0 °C 1009.1 hPa NW 8 km/h 8 km/h 89% 0.00 mm 0.00 W/m2
22:09 28.0 °C 26.0 °C 1009.1 hPa WNW 4 km/h 8 km/h 88% 0.00 mm 0.00 W/m2
22:14 28.0 °C 26.0 °C 1009.1 hPa South 1 km/h 4 km/h 88% 0.00 mm 0.00 W/m2
22:19 28.0 °C 26.0 °C 1009.5 hPa SSE 4 km/h 4 km/h 87% 0.00 mm 0.00 W/m2
22:24 28.0 °C 26.0 °C 1009.5 hPa SE 2 km/h 4 km/h 87% 0.00 mm 0.00 W/m2
22:29 28.0 °C 26.0 °C 1009.5 hPa NNE 4 km/h 4 km/h 86% 0.00 mm 0.00 W/m2
22:34 28.0 °C 26.0 °C 1009.5 hPa NNE 4 km/h 8 km/h 86% 0.00 mm 0.00 W/m2
22:39 28.0 °C 26.0 °C 1009.1 hPa SW 1 km/h 4 km/h 86% 0.00 mm 0.00 W/m2
22:44 29.0 °C 26.0 °C 1009.5 hPa Calm     87% 0.00 mm 0.00 W/m2
22:49 29.0 °C 26.0 °C 1009.5 hPa Calm     86% 0.00 mm 0.00 W/m2
22:54 29.0 °C 26.0 °C 1009.5 hPa Calm     85% 0.00 mm 0.00 W/m2
22:59 29.0 °C 26.0 °C 1009.8 hPa Calm     86% 0.00 mm 0.00 W/m2
23:04 29.0 °C 26.0 °C 1009.5 hPa Calm     86% 0.00 mm 0.00 W/m2
23:09 29.0 °C 26.0 °C 1009.5 hPa Calm     86% 0.00 mm 0.00 W/m2
23:14 29.0 °C 26.0 °C 1009.5 hPa Calm     85% 0.00 mm 0.00 W/m2
23:19 29.0 °C 26.0 °C 1009.1 hPa NE 3 km/h 4 km/h 86% 0.00 mm 0.00 W/m2
23:24 29.0 °C 27.0 °C 1009.5 hPa NE 3 km/h 4 km/h 87% 0.00 mm 0.00 W/m2
23:29 29.0 °C 26.0 °C 1009.5 hPa NE 5 km/h 8 km/h 87% 0.00 mm 0.00 W/m2
23:34 29.0 °C 26.0 °C 1009.5 hPa NE 1 km/h 4 km/h 86% 0.00 mm 0.00 W/m2
23:39 29.0 °C 26.0 °C 1009.1 hPa Calm     85% 0.00 mm 0.00 W/m2
23:44 29.0 °C 26.0 °C 1009.5 hPa East 1 km/h 4 km/h 86% 0.00 mm 0.00 W/m2
23:49 29.0 °C 26.0 °C 1009.1 hPa Calm     85% 0.00 mm 0.00 W/m2
23:54 29.0 °C 26.0 °C 1009.5 hPa NW 5 km/h 8 km/h 84% 0.00 mm 0.00 W/m2
23:59 29.0 °C 26.0 °C 1009.5 hPa WNW 6 km/h 8 km/h 84% 0.00 mm 0.00 W/m2
PIMOHWEATHER Philippines
Compliments of Weather Underground - 2 mb